This is the latest recevied weather packets stored in our database for station/object PY3MO-11. If no packets are shown the sender has not sent any weather packets the latest 10 day(s).
| Time | Temp. | Humidity | Pressure | Rain* | Wind** | Luminosity | Snow |
|---|---|---|---|---|---|---|---|
| 1777815243 | 12.22° C | 63% | 1023.7 hPa | 0 mm | - | - | - |
| 1777814943 | 12.22° C | 63% | 1023.6 hPa | 0 mm | - | - | - |
| 1777814642 | 12.22° C | 64% | 1023.9 hPa | 0 mm | - | - | - |
| 1777814342 | 12.22° C | 65% | 1023.8 hPa | 0 mm | - | - | - |
| 1777814042 | 12.22° C | 65% | 1023.9 hPa | 0 mm | - | - | - |
| 1777813744 | 11.67° C | 67% | 1023.9 hPa | 0 mm | - | - | - |
| 1777813444 | 11.67° C | 70% | 1024.1 hPa | 0 mm | - | - | - |
| 1777813144 | 11.11° C | 70% | 1024 hPa | 0 mm | - | - | - |
| 1777812843 | 10.56° C | 71% | 1024.1 hPa | 0 mm | - | - | - |
| 1777812543 | 10° C | 71% | 1024.1 hPa | 0 mm | - | - | - |
| 1777812243 | 10.56° C | 71% | 1024.1 hPa | 0 mm | - | - | - |
| 1777775049 | 10° C | 78% | 1023.3 hPa | 0 mm | - | - | - |
| 1777774749 | 10° C | 80% | 1023.1 hPa | 0 mm | - | - | - |
| 1777774451 | 10.56° C | 81% | 1023 hPa | 0 mm | - | - | - |
| 1777774150 | 10.56° C | 82% | 1023 hPa | 0 mm | - | - | - |
| 1777773850 | 10.56° C | 82% | 1023.2 hPa | 0 mm | - | - | - |
| 1777773550 | 10.56° C | 83% | 1023.1 hPa | 0 mm | - | - | - |
| 1777773250 | 10.56° C | 83% | 1023.1 hPa | 0 mm | - | - | - |
| 1777772950 | 10.56° C | 84% | 1022.9 hPa | 0 mm | - | - | - |
| 1777772650 | 11.11° C | 87% | 1022.9 hPa | 0 mm | - | - | - |
| 1777772349 | 11.11° C | 90% | 1022.9 hPa | 0 mm | - | - | - |
| 1777772049 | 11.67° C | 91% | 1022.9 hPa | 0 mm | - | - | - |
| 1777771749 | 11.67° C | 91% | 1022.8 hPa | 0 mm | - | - | - |
| 1777771449 | 11.67° C | 91% | 1022.7 hPa | 0 mm | - | - | - |
| 1777771149 | 11.67° C | 91% | 1022.8 hPa | 0 mm | - | - | - |
* Rain latest hour (hover to see other rain measurements)
** Current wind speed in m/s (hover to see current wind gust speed)